Regional Weather Roundup
Issued by NWS Midland/Odessa, TX

Skip options and go directly to product.
Home | Oldest Version | Previous Version | Current Version | All | Text Only | Save Text | Print | Product List | Glossary Off

Skip product version selection by date and time.   

158
ASUS44 KMAF 020810
RWRMAF
MIDLAND AREA WEATHER ROUNDUP
NATIONAL WEATHER SERVICE MIDLAND TX
300 AM CDT SAT AUG 02 2014

...IN SOUTHWEST TEXAS AND SOUTHEAST NEW MEXICO...

CITY           SKY/WX    TMP DP  RH WIND       PRES   REMARKS
ALPINE         PTCLDY    65  59  79 CALM      30.26F
ANDREWS        FAIR      73  51  45 E6        30.16F
ARTESIA        CLOUDY    68  66  94 W5        30.18F
BIG SPRING     MOCLDY    74  52  44 E6        30.14F
CARLSBAD       CLOUDY    69  66  90 W8        30.15F
DRYDEN           N/A     81  59  47 N7        30.05S
FORT STOCKTON  MOCLDY    71  64  78 E5        30.13S
GUAD PASS      CLOUDY    61  59  93 NE32      30.24F
HOBBS          CLOUDY    72  48  43 E7        30.18F
MARFA          CLOUDY    64  59  82 N6        30.24S
MIDLAND AIRPK  MOCLDY    73  53  48 CALM      30.14S
MIDLAND INTL   MOCLDY    74  53  48 E3        30.13F
ODESSA         CLOUDY    74  54  49 E7        30.14F
PECOS          MOCLDY    75  61  61 N7        30.10F
PRESIDIO       FAIR      78  61  56 NE7       30.08S
SEMINOLE       CLOUDY    73  50  45 E6        30.18F
SNYDER         MOCLDY    73  59  61 E6        30.13F
WINK           CLOUDY    77  64  64 CALM      30.11F
$$
...OTHER STATIONS IN TEXAS...

CITY           SKY/WX    TMP DP  RH WIND       PRES   REMARKS
ABILENE        PTCLDY    70  61  73 E3        30.11F
AMARILLO       CLEAR     62  52  69 SW8       30.21F
AUSTIN         CLEAR     70  66  87 CALM      30.03F
BROWNSVILLE    PTCLDY    78  76  93 SE6       29.94F
CORPUS CHRISTI MOCLDY    81  76  84 S6        29.95F
DALLAS FTW     PTCLDY    69  65  86 N6        30.05S
DEL RIO        LGT RAIN  82  68  62 E14       29.98S
EL PASO        CLOUDY    71  59  65 NE7       30.14F
HOUSTON INT    PTCLDY    72  69  90 CALM      29.98S
LUBBOCK        CLOUDY    69  52  54 E5        30.18S
SAN ANGELO     MOCLDY    73  58  59 E5        30.09S
SAN ANTONIO    PTCLDY    76  67  73 NE10      30.03S
WACO           CLOUDY    74  66  76 N6        30.03F
WICHITA FALLS  NOT AVBL
$$
...OTHER LOCATIONS IN NEW MEXICO...

CITY           SKY/WX    TMP DP  RH WIND       PRES   REMARKS
ALAMAGORDO     MOCLDY    68  64  88 N7        30.19S
ALBUQUERQUE    LGT RAIN  62  57  83 E22       30.28S
CANNON AFB     CLOUDY    65  47  52 E5        30.24F
CLOVIS         NOT AVBL
HOLLOMAN AFB   CLOUDY    68  66  94 N5        30.17S
ROSWELL        CLOUDY    71  65  81 N3        30.18F
RUIDOSO        CLOUDY    59  55  88 CALM      30.38S
SANTA FE         N/A     59  56  89 SE9       30.35R
TRUTH OR CONSE CLOUDY    70  61  73 CALM      30.21R
TUCUMCARI      CLOUDY    71  49  45 S3        30.22F
$$

USA.gov is the U.S. government's official web portal to all federal, state and local government web resources and services.